Weather History for Pinedale, WY

Change the Weather History Date:

Monday, August 5, 2013

  Actual Average (KBPI) Record (KBPI)
Temperature  
Mean Temperature 60 °F 62 °F  
Max Temperature 82 °F 81 °F 93 °F (2003)
Min Temperature 37 °F 43 °F 28 °F (1980)
Degree Days  
Heating Degree Days 6 4  
Month to date heating degree days 16  
Since 1 June heating degree days 438  
Since 1 July heating degree days 133  
Cooling Degree Days 0 1  
Month to date cooling degree days 5  
Year to date cooling degree days 29  
Since 1 June cooling degree days 29  
Growing Degree Days 10 (Base 50)    
Moisture  
Dew Point 29 °F    
Average Humidity 37    
Maximum Humidity 81    
Minimum Humidity 10    
Precipitation  
Precipitation 0.00 in 0.02 in 2.48 in (1997)
Month to date precipitation 0.11  
Year to date precipitation 4.08  
Sea Level Pressure  
Sea Level Pressure 30.25 in    
Wind  
Wind Speed 6 mph (WNW)    
Max Wind Speed 30 mph    
Max Gust Speed 39 mph    
Visibility 10 miles    
Events      
T = Trace of Precipitation, MM = Missing Value Source: NWS Daily Summary

Daily Weather History Graph

Daily Weather History Graph

Search for Another Location

Airport:

Trip Planner

Search our weather history database for the weather conditions in past years. The results will help you decide how hot, cold, wet, or windy it might be!

Date:

Astronomy

Aug. 05, 2013 Rise Set
Actual Time 6:15 AM MDT 8:34 PM MDT
Civil Twilight 5:43 AM MDT 9:05 PM MDT
Nautical Twilight 5:04 AM MDT 9:44 PM MDT
Astronomical Twilight 4:20 AM MDT 10:28 PM MDT
Moon 5:13 AM MDT (8/5) 7:35 PM MDT (8/5)
Length of Visible Light 15h 22m
Length of Day
14h 19m
Waning Crescent, 1% of the Moon is Illuminated
Aug 5
Waning Crescent
Aug 6
New
Aug 14
First Quarter
Aug 20
Full
Aug 28
Last Quarter

Hourly Weather History & Observations

Time (MDT) Temp. Windchill Dew Point Humidity Pressure Visibility Wind Dir Wind Speed Gust Speed Precip Events Conditions
12:15 AM 57.2 °F - 32.0 °F 38% 30.27 in 10.0 mi Calm Calm - N/A   Clear
12:35 AM 55.4 °F - 33.8 °F 44% 30.27 in 10.0 mi NNW 4.6 mph - N/A   Clear
12:55 AM 50.0 °F - 35.6 °F 58% 30.27 in 10.0 mi West 6.9 mph - N/A   Clear
1:15 AM 50.0 °F - 35.6 °F 58% 30.27 in 10.0 mi WNW 4.6 mph - N/A   Clear
1:35 AM 48.2 °F - 35.6 °F 62% 30.27 in 10.0 mi NW 3.5 mph - N/A   Clear
1:55 AM 48.2 °F - 33.8 °F 58% 30.27 in 10.0 mi WNW 4.6 mph - N/A   Clear
2:15 AM 46.4 °F 43.5 °F 33.8 °F 62% 30.27 in 10.0 mi West 5.8 mph - N/A   Clear
2:35 AM 44.6 °F 40.7 °F 32.0 °F 61% 30.27 in 10.0 mi West 6.9 mph - N/A   Clear
2:55 AM 44.6 °F 40.7 °F 32.0 °F 61% 30.27 in 10.0 mi West 6.9 mph - N/A   Clear
3:15 AM 42.8 °F 38.6 °F 32.0 °F 66% 30.27 in 10.0 mi WNW 6.9 mph - N/A   Clear
3:35 AM 41.0 °F 37.1 °F 32.0 °F 70% 30.27 in 10.0 mi WNW 5.8 mph - N/A   Clear
3:55 AM 41.0 °F 38.0 °F 32.0 °F 70% 30.27 in 10.0 mi West 4.6 mph - N/A   Clear
4:15 AM 41.0 °F 36.4 °F 32.0 °F 70% 30.27 in 10.0 mi West 6.9 mph - N/A   Clear
4:35 AM 41.0 °F 35.8 °F 32.0 °F 70% 30.27 in 10.0 mi West 8.1 mph - N/A   Clear
4:55 AM 41.0 °F 37.1 °F 32.0 °F 70% 30.27 in 10.0 mi WNW 5.8 mph - N/A   Clear
5:15 AM 42.8 °F 38.0 °F 32.0 °F 66% 30.27 in 10.0 mi NW 8.1 mph - N/A   Clear
5:35 AM 39.2 °F 35.0 °F 32.0 °F 75% 30.29 in 10.0 mi West 5.8 mph - N/A   Clear
5:55 AM 41.0 °F 38.0 °F 32.0 °F 70% 30.29 in 10.0 mi NW 4.6 mph - N/A   Clear
6:15 AM 37.4 °F 33.8 °F 32.0 °F 81% 30.29 in 10.0 mi West 4.6 mph - N/A   Clear
6:35 AM 39.2 °F 35.9 °F 32.0 °F 75% 30.29 in 10.0 mi WNW 4.6 mph - N/A   Clear
6:55 AM 39.2 °F 35.9 °F 32.0 °F 75% 30.30 in 10.0 mi West 4.6 mph - N/A   Clear
7:15 AM 41.0 °F 38.0 °F 32.0 °F 70% 30.29 in 10.0 mi West 4.6 mph - N/A   Clear
7:35 AM 44.6 °F 42.2 °F 32.0 °F 61% 30.30 in 10.0 mi West 4.6 mph - N/A   Clear
7:55 AM 50.0 °F - 32.0 °F 50% 30.30 in 10.0 mi NNW 4.6 mph - N/A   Clear
8:15 AM 51.8 °F - 33.8 °F 50% 30.30 in 10.0 mi NNW 3.5 mph - N/A   Clear
8:35 AM 55.4 °F - 32.0 °F 41% 30.30 in 10.0 mi Calm Calm - N/A   Clear
8:55 AM 60.8 °F - 32.0 °F 34% 30.30 in 10.0 mi Calm Calm - N/A   Clear
9:15 AM 62.6 °F - 30.2 °F 30% 30.29 in 10.0 mi East 3.5 mph - N/A   Clear
9:35 AM 64.4 °F - 30.2 °F 28% 30.29 in 10.0 mi ESE 3.5 mph - N/A   Clear
9:55 AM 68.0 °F - 30.2 °F 24% 30.29 in 10.0 mi Calm Calm - N/A   Clear
10:15 AM 69.8 °F - 28.4 °F 21% 30.29 in 10.0 mi Calm Calm - N/A   Clear
10:35 AM 71.6 °F - 26.6 °F 19% 30.29 in 10.0 mi SE 3.5 mph - N/A   Clear
10:55 AM 73.4 °F - 26.6 °F 18% 30.28 in 10.0 mi East 4.6 mph - N/A   Clear
11:15 AM 75.2 °F - 26.6 °F 17% 30.28 in 10.0 mi Calm Calm - N/A   Clear
11:35 AM 77.0 °F - 26.6 °F 16% 30.27 in 10.0 mi SE 8.1 mph - N/A   Clear
11:55 AM 78.8 °F - 24.8 °F 14% 30.27 in 10.0 mi East 5.8 mph - N/A   Clear
12:15 PM 78.8 °F - 23.0 °F 13% 30.26 in 10.0 mi Calm Calm - N/A   Clear
12:35 PM 78.8 °F - 23.0 °F 13% 30.25 in 10.0 mi Calm Calm - N/A   Clear
12:55 PM 80.6 °F - 21.2 °F 11% 30.24 in 10.0 mi West 13.8 mph 19.6 mph N/A   Clear
1:15 PM 82.4 °F - 21.2 °F 10% 30.23 in 10.0 mi NNW 8.1 mph 18.4 mph N/A   Clear
1:35 PM 80.6 °F - 23.0 °F 12% 30.22 in 10.0 mi SSE 4.6 mph - N/A   Clear
1:55 PM 78.8 °F - 23.0 °F 13% 30.22 in 10.0 mi WSW 10.4 mph - N/A   Clear
2:15 PM 82.4 °F - 23.0 °F 11% 30.22 in 10.0 mi West 8.1 mph 35.7 mph N/A   Scattered Clouds
2:35 PM 78.8 °F - 21.2 °F 12% 30.21 in 10.0 mi WNW 5.8 mph 16.1 mph N/A   Scattered Clouds
2:55 PM 78.8 °F - 23.0 °F 13% 30.20 in 10.0 mi WSW 8.1 mph - N/A   Scattered Clouds
3:15 PM 78.8 °F - 23.0 °F 13% 30.21 in 10.0 mi West 25.3 mph 31.1 mph N/A   Scattered Clouds
3:35 PM 78.8 °F - 24.8 °F 14% 30.22 in 10.0 mi WNW 20.7 mph 25.3 mph N/A   Mostly Cloudy
3:55 PM 78.8 °F - 26.6 °F 15% 30.21 in 10.0 mi WNW 12.7 mph 32.2 mph N/A   Scattered Clouds
4:15 PM 77.0 °F - 24.8 °F 14% 30.21 in 10.0 mi WSW 17.3 mph 33.4 mph N/A   Clear
4:35 PM 80.6 °F - 26.6 °F 14% 30.19 in 10.0 mi SSW 11.5 mph 18.4 mph N/A   Clear
4:55 PM 80.6 °F - 26.6 °F 14% 30.18 in 10.0 mi SW 10.4 mph 18.4 mph N/A   Clear
5:15 PM 78.8 °F - 26.6 °F 15% 30.17 in 10.0 mi SSW 12.7 mph - N/A   Clear
5:35 PM 73.4 °F - 30.2 °F 20% 30.21 in 10.0 mi NNW 13.8 mph 18.4 mph N/A   Mostly Cloudy
5:55 PM 73.4 °F - 30.2 °F 20% 30.19 in 10.0 mi North 12.7 mph 24.2 mph N/A   Overcast
6:15 PM 73.4 °F - 30.2 °F 20% 30.22 in 10.0 mi WNW 29.9 mph 39.1 mph N/A   Overcast
6:35 PM 71.6 °F - 30.2 °F 22% 30.22 in 10.0 mi WNW 11.5 mph 21.9 mph N/A   Mostly Cloudy
6:55 PM 71.6 °F - 30.2 °F 22% 30.22 in 10.0 mi West 12.7 mph 20.7 mph N/A   Mostly Cloudy
7:15 PM 69.8 °F - 28.4 °F 21% 30.21 in 10.0 mi WSW 19.6 mph 27.6 mph N/A   Mostly Cloudy
7:35 PM 69.8 °F - 28.4 °F 21% 30.22 in 10.0 mi SW 15.0 mph 21.9 mph N/A   Scattered Clouds
7:55 PM 69.8 °F - 28.4 °F 21% 30.21 in 10.0 mi NNE 4.6 mph - N/A   Scattered Clouds
8:15 PM 71.6 °F - 26.6 °F 19% 30.21 in 10.0 mi Calm Calm - N/A   Clear
8:35 PM 68.0 °F - 30.2 °F 24% 30.20 in 10.0 mi Calm Calm - N/A   Clear
8:55 PM 64.4 °F - 30.2 °F 28% 30.20 in 10.0 mi East 5.8 mph - N/A   Clear
9:15 PM 62.6 °F - 32.0 °F 32% 30.21 in 10.0 mi SSE 3.5 mph - N/A   Clear
9:35 PM 60.8 °F - 30.2 °F 31% 30.21 in 10.0 mi Calm Calm - N/A   Clear
9:55 PM 59.0 °F - 30.2 °F 34% 30.21 in 10.0 mi NNE 4.6 mph - N/A   Scattered Clouds
10:15 PM 53.6 °F - 30.2 °F 41% 30.21 in 10.0 mi Calm Calm - N/A   Mostly Cloudy
10:35 PM 51.8 °F - 32.0 °F 47% 30.21 in 10.0 mi Calm Calm - N/A   Mostly Cloudy
10:55 PM 55.4 °F - 30.2 °F 38% 30.21 in 10.0 mi North 3.5 mph - N/A   Scattered Clouds
11:15 PM 48.2 °F - 33.8 °F 58% 30.21 in 10.0 mi Calm Calm - N/A   Scattered Clouds
11:35 PM 48.2 °F - 32.0 °F 54% 30.20 in 10.0 mi West 3.5 mph - N/A   Scattered Clouds
11:55 PM 50.0 °F - 32.0 °F 50% 30.20 in 10.0 mi NW 4.6 mph - N/A   Clear